Time,TemperatureF,DewpointF,PressureIn,WindDirection,WindDirectionDegrees,WindSpeedMPH,WindSpeedGustMPH,Humidity,HourlyPrecipIn,Conditions,Clouds,dailyrainin,SoftwareType,DateUTC
2013-11-18 00:22:00,40.0,33.0,29.63,West,277,11.0,13.0,76,0.00,,,0.03,,2013-11-18 06:22:00,
2013-11-18 00:42:00,40.0,33.0,29.63,West,273,16.0,16.0,77,0.00,,,0.03,,2013-11-18 06:42:00,
2013-11-18 00:52:00,40.0,33.0,29.63,West,273,16.0,16.0,77,0.00,,,0.03,,2013-11-18 06:52:00,
2013-11-18 01:21:00,39.0,31.0,29.66,West,265,14.0,17.0,74,0.00,,,0.03,,2013-11-18 07:21:00,
2013-11-18 01:42:00,39.0,32.0,29.67,NW,310,7.0,15.0,75,0.00,,,0.03,,2013-11-18 07:42:00,
2013-11-18 01:52:00,38.0,30.0,29.67,WNW,284,13.0,23.0,73,0.00,,,0.03,,2013-11-18 07:52:00,
2013-11-18 02:22:00,37.0,29.0,29.68,WNW,298,12.0,16.0,72,0.00,,,0.03,,2013-11-18 08:22:00,
2013-11-18 02:52:00,37.0,30.0,29.70,WNW,293,10.0,15.0,76,0.00,,,0.03,,2013-11-18 08:52:00,
2013-11-18 03:12:00,37.0,30.0,29.71,WNW,293,10.0,12.0,75,0.00,,,0.03,,2013-11-18 09:12:00,
2013-11-18 03:22:00,37.0,30.0,29.71,WSW,245,10.0,15.0,76,0.00,,,0.03,,2013-11-18 09:22:00,
2013-11-18 03:53:00,36.0,29.0,29.72,WSW,257,8.0,10.0,77,0.00,,,0.03,,2013-11-18 09:53:00,
2013-11-18 04:23:00,36.0,29.0,29.74,WNW,286,9.0,12.0,76,0.00,,,0.03,,2013-11-18 10:23:00,
2013-11-18 04:53:00,35.0,27.0,29.75,West,277,8.0,9.0,73,0.00,,,0.03,,2013-11-18 10:53:00,
2013-11-18 05:22:00,35.0,28.0,29.76,West,269,11.0,16.0,74,0.00,,,0.03,,2013-11-18 11:22:00,
2013-11-18 05:52:00,35.0,27.0,29.77,West,276,19.0,22.0,72,0.00,,,0.03,,2013-11-18 11:52:00,
2013-11-18 06:22:00,35.0,26.0,29.79,WNW,300,10.0,17.0,69,0.00,,,0.03,,2013-11-18 12:22:00,
2013-11-18 06:42:00,35.0,26.0,29.79,WNW,286,10.0,15.0,69,0.00,,,0.03,,2013-11-18 12:42:00,
2013-11-18 06:52:00,34.0,25.0,29.80,West,281,10.0,11.0,70,0.00,,,0.03,,2013-11-18 12:52:00,
2013-11-18 07:21:00,35.0,26.0,29.82,West,259,14.0,20.0,70,0.00,,,0.00,,2013-11-18 13:21:00,
2013-11-18 07:42:00,34.0,25.0,29.82,WNW,289,13.0,16.0,69,0.00,,,0.00,,2013-11-18 13:42:00,
2013-11-18 07:52:00,34.0,25.0,29.83,West,271,14.0,21.0,69,0.00,,,0.00,,2013-11-18 13:52:00,
2013-11-18 08:02:00,34.0,25.0,29.83,West,271,14.0,21.0,69,0.00,,,0.00,,2013-11-18 14:02:00,
2013-11-18 08:22:00,34.0,25.0,29.85,West,268,15.0,15.0,68,0.00,,,0.00,,2013-11-18 14:22:00,
2013-11-18 08:42:00,34.0,25.0,29.86,WNW,286,12.0,17.0,69,0.00,,,0.00,,2013-11-18 14:42:00,
2013-11-18 08:52:00,34.0,25.0,29.86,WNW,286,12.0,17.0,69,0.00,,,0.00,,2013-11-18 14:52:00,
2013-11-18 09:22:00,34.0,24.0,29.88,West,275,10.0,15.0,67,0.00,,,0.00,,2013-11-18 15:22:00,
2013-11-18 09:43:00,34.0,23.0,29.89,NW,312,10.0,15.0,65,0.00,,,0.00,,2013-11-18 15:43:00,
2013-11-18 09:54:00,34.0,24.0,29.91,WNW,295,4.0,8.0,66,0.00,,,0.00,,2013-11-18 15:54:00,
2013-11-18 10:23:00,34.0,25.0,29.92,West,275,11.0,11.0,68,0.00,,,0.00,,2013-11-18 16:23:00,
2013-11-18 10:43:00,34.0,25.0,29.93,NW,325,4.0,7.0,68,0.00,,,0.00,,2013-11-18 16:43:00,
2013-11-18 10:52:00,34.0,24.0,29.95,West,275,11.0,11.0,66,0.00,,,0.00,,2013-11-18 16:52:00,
2013-11-18 11:02:00,34.0,24.0,29.95,West,275,11.0,11.0,66,0.00,,,0.00,,2013-11-18 17:02:00,
2013-11-18 11:22:00,34.0,23.0,29.96,WNW,292,6.0,10.0,63,0.00,,,0.00,,2013-11-18 17:22:00,
2013-11-18 11:43:00,34.0,23.0,29.97,WNW,298,6.0,15.0,63,0.00,,,0.00,,2013-11-18 17:43:00,
2013-11-18 11:52:00,34.0,23.0,29.97,NW,315,6.0,10.0,64,0.00,,,0.00,,2013-11-18 17:52:00,
2013-11-18 12:23:00,34.0,23.0,29.99,WNW,286,7.0,9.0,65,0.00,,,0.00,,2013-11-18 18:23:00,
2013-11-18 12:52:00,34.0,23.0,30.01,WNW,298,3.0,4.0,63,0.00,,,0.00,,2013-11-18 18:52:00,
2013-11-18 13:21:00,33.0,21.0,30.03,WNW,296,9.0,11.0,62,0.00,,,0.00,,2013-11-18 19:21:00,
2013-11-18 13:42:00,34.0,23.0,30.03,WNW,290,7.0,10.0,63,0.00,,,0.00,,2013-11-18 19:42:00,
2013-11-18 14:21:00,34.0,23.0,30.05,WNW,284,11.0,16.0,65,0.00,,,0.00,,2013-11-18 20:21:00,
2013-11-18 14:42:00,34.0,23.0,30.06,WNW,302,7.0,10.0,65,0.00,,,0.00,,2013-11-18 20:42:00,
2013-11-18 14:52:00,34.0,22.0,30.06,West,275,7.0,16.0,61,0.00,,,0.00,,2013-11-18 20:52:00,
2013-11-18 15:22:00,34.0,21.0,30.08,WNW,288,10.0,11.0,59,0.00,,,0.00,,2013-11-18 21:22:00,
2013-11-18 15:54:00,34.0,22.0,30.09,West,274,5.0,8.0,61,0.00,,,0.00,,2013-11-18 21:54:00,
2013-11-18 16:22:00,34.0,22.0,30.11,WNW,288,5.0,10.0,61,0.00,,,0.00,,2013-11-18 22:22:00,
2013-11-18 16:53:00,32.0,21.0,30.11,NW,316,5.0,10.0,64,0.00,,,0.00,,2013-11-18 22:53:00,
2013-11-18 17:21:00,32.0,23.0,30.13,WNW,290,3.0,4.0,68,0.00,,,0.00,,2013-11-18 23:21:00,
2013-11-18 17:52:00,32.0,22.0,30.14,WNW,292,4.0,4.0,67,0.00,,,0.00,,2013-11-18 23:52:00,
2013-11-18 18:21:00,31.0,22.0,30.16,NW,320,2.0,3.0,68,0.00,,,0.00,,2013-11-19 00:21:00,
2013-11-18 18:42:00,30.0,21.0,30.17,NW,323,0.0,4.0,69,0.00,,,0.00,,2013-11-19 00:42:00,
2013-11-18 18:52:00,30.0,21.0,30.18,NNW,338,3.0,5.0,69,0.00,,,0.00,,2013-11-19 00:52:00,
2013-11-18 19:21:00,30.0,22.0,30.19,West,275,3.0,3.0,72,0.00,,,0.00,,2013-11-19 01:21:00,
2013-11-18 19:42:00,29.0,21.0,30.19,NW,309,0.0,3.0,73,0.00,,,0.00,,2013-11-19 01:42:00,
2013-11-18 19:52:00,29.0,21.0,30.19,NW,324,2.0,6.0,73,0.00,,,0.00,,2013-11-19 01:52:00,
2013-11-18 20:22:00,29.0,20.0,30.21,NNW,329,2.0,3.0,69,0.00,,,0.00,,2013-11-19 02:22:00,
2013-11-18 20:42:00,29.0,20.0,30.21,West,279,4.0,4.0,69,0.00,,,0.00,,2013-11-19 02:42:00,
2013-11-18 20:52:00,29.0,20.0,30.22,NW,311,3.0,6.0,69,0.00,,,0.00,,2013-11-19 02:52:00,
2013-11-18 21:21:00,29.0,20.0,30.23,NNW,348,3.0,3.0,70,0.00,,,0.00,,2013-11-19 03:21:00,
2013-11-18 21:54:00,28.0,20.0,30.23,NNW,331,2.0,3.0,72,0.00,,,0.00,,2013-11-19 03:54:00,
2013-11-18 22:13:00,28.0,20.0,30.23,NNW,336,2.0,3.0,72,0.00,,,0.00,,2013-11-19 04:13:00,
2013-11-18 22:23:00,28.0,20.0,30.23,NNW,336,2.0,3.0,72,0.00,,,0.00,,2013-11-19 04:23:00,
2013-11-18 22:42:00,27.0,20.0,30.23,WNW,293,3.0,3.0,75,0.00,,,0.00,,2013-11-19 04:42:00,
2013-11-18 22:52:00,27.0,20.0,30.24,NNW,336,3.0,3.0,76,0.00,,,0.00,,2013-11-19 04:52:00,
2013-11-18 23:22:00,27.0,20.0,30.26,West,281,3.0,5.0,76,0.00,,,0.00,,2013-11-19 05:22:00,
2013-11-18 23:43:00,27.0,20.0,30.26,NNW,332,2.0,4.0,76,0.00,,,0.00,,2013-11-19 05:43:00,
2013-11-18 23:53:00,26.0,20.0,30.26,West,279,2.0,3.0,77,0.00,,,0.00,,2013-11-19 05:53:00,